Location: Seattle
(47.6064°N, 122.3308°W)
Time: 11:39:53
(UTC-07:00)

Altair - Visible Passes

Search period start: 19 June 2021 00:00
Search period end: 29 June 2021 00:00
Orbit: 1501 x 1683 km, 47.2° (Epoch: 18 June)

Date Brightness Start Highest point End Pass type
(mag) Time Alt. Az. Time Alt. Az. Time Alt. Az.
19 Jun 9.5 22:59:28 10° WSW 23:01:19 11° WSW 23:03:12 10° SW visible
20 Jun 9.5 22:32:51 10° W 22:36:19 12° WSW 22:39:49 10° SW visible
21 Jun 9.4 22:06:50 10° W 22:11:19 14° WSW 22:15:49 10° SSW visible
22 Jun 9.4 21:41:04 10° W 21:46:17 16° SW 21:51:35 10° SSW visible
